Port Hope, MI

5:46 AM EDT on September 24, 2017 (GMT -0400)
Port Hope

Weather History for KP58 - April, 2013

Change the Weather History Date:

Wednesday, April 3, 2013

  Actual Average Record
Temperature  
Mean Temperature 31 °F -  
Max Temperature 39 °F 41 °F 59 °F (2006)
Min Temperature 26 °F 30 °F 23 °F (2016)
Degree Days  
Heating Degree Days 34    
Moisture  
Dew Point 17 °F    
Average Humidity 58    
Maximum Humidity 75    
Minimum Humidity 46    
Precipitation  
Precipitation 0.00 in - - ()
Sea Level Pressure  
Sea Level Pressure 30.34 in    
Wind  
Wind Speed 9 mph (NW)    
Max Wind Speed 14 mph    
Max Gust Speed 23 mph    
Averages and records for this station are not official NWS values.
T = Trace of Precipitation, MM = Missing Value Source: NWS Daily Summary

Daily Weather History Graph

Daily Weather History Graph

Search for Another Location

Airport or City:

Trip Planner

Search our weather history database for the weather conditions in past years. The results will help you decide how hot, cold, wet, or windy it might be!

Date:

Astronomy

Apr. 03, 2013 Rise Set
Actual Time 7:08 AM EDT 8:00 PM EDT
Civil Twilight 6:39 AM EDT 8:30 PM EDT
Nautical Twilight 6:04 AM EDT 9:05 PM EDT
Astronomical Twilight 5:28 AM EDT 9:41 PM EDT
Moon 3:01 AM EDT (4/3) 12:58 PM EDT (4/3)
Length of Visible Light 13h 51m
Length of Day
12h 52m
Last Quarter, 45% of the Moon is Illuminated
Apr 3
Last Quarter
Apr 10
New
Apr 18
First Quarter
Apr 25
Full
May 2
Last Quarter

Hourly Weather History & Observations

Time (EDT) Temp. Windchill Dew Point Humidity Pressure Visibility Wind Dir Wind Speed Gust Speed Precip Events Conditions
12:51 AM 28.9 °F 19.2 °F 16.0 °F 58% 30.23 in - NW 11.5 mph 19.6 mph N/A   Unknown
1:51 AM 28.0 °F 18.6 °F 14.0 °F 56% 30.23 in - NW 10.4 mph 20.7 mph N/A   Unknown
2:51 AM 27.0 °F 18.0 °F 12.9 °F 56% 30.24 in - NW 9.2 mph 17.3 mph N/A   Unknown
3:51 AM 26.1 °F 15.6 °F 12.9 °F 58% 30.25 in - NW 11.5 mph 21.9 mph N/A   Unknown
4:51 AM 26.1 °F 16.2 °F 14.0 °F 60% 30.26 in - NW 10.4 mph 18.4 mph N/A   Unknown
5:51 AM 26.1 °F 15.6 °F 15.1 °F 63% 30.27 in - NW 11.5 mph 18.4 mph N/A   Unknown
6:51 AM 26.1 °F 15.6 °F 14.0 °F 60% 30.27 in - WNW 11.5 mph 23.0 mph N/A   Unknown
7:51 AM 27.0 °F 15.6 °F 14.0 °F 58% 30.30 in - NW 13.8 mph 23.0 mph N/A   Unknown
8:51 AM 27.0 °F 16.1 °F 16.0 °F 63% 30.33 in - NW 12.7 mph 21.9 mph N/A   Unknown
9:51 AM 28.9 °F 19.8 °F 14.0 °F 54% 30.35 in - NNW 10.4 mph 20.7 mph N/A   Unknown
10:51 AM 28.9 °F 20.4 °F 12.9 °F 51% 30.38 in - NNW 9.2 mph 18.4 mph N/A   Unknown
11:51 AM 30.0 °F 20.5 °F 14.0 °F 51% 30.40 in - NW 11.5 mph 17.3 mph N/A   Unknown
12:51 PM 33.1 °F 26.9 °F 16.0 °F 50% 30.42 in - NW 6.9 mph - N/A   Unknown
1:51 PM 33.1 °F 26.9 °F 16.0 °F 50% 30.42 in - NW 6.9 mph - N/A   Unknown
2:51 PM 34.0 °F 31.0 °F 15.1 °F 46% 30.41 in - NNW 3.5 mph - N/A   Unknown
3:51 PM 36.0 °F 32.1 °F 18.0 °F 48% 30.41 in - NNW 4.6 mph - N/A   Unknown
4:51 PM 36.0 °F 33.3 °F 19.0 °F 50% 30.39 in - Variable 3.5 mph - N/A   Unknown
5:51 PM 34.0 °F 29.8 °F 19.9 °F 56% 30.39 in - ENE 4.6 mph - N/A   Unknown
6:51 PM 34.0 °F 29.8 °F 19.9 °F 56% 30.39 in - East 4.6 mph - N/A   Unknown
7:51 PM 32.0 °F 24.8 °F 21.0 °F 64% 30.39 in - SE 8.1 mph - N/A   Unknown
8:51 PM 30.0 °F 25.2 °F 21.0 °F 69% 30.38 in - SSE 4.6 mph - N/A   Unknown
9:51 PM 28.9 °F 25.2 °F 21.9 °F 75% 30.37 in - South 3.5 mph - N/A   Unknown
10:51 PM 28.0 °F - 21.0 °F 75% 30.36 in - Calm Calm - N/A   Unknown
11:51 PM 28.9 °F - 19.0 °F 67% 30.34 in - Calm Calm - N/A   Unknown